Regional Weather Roundup
Issued by NWS Northern Indiana

Home | Current Version | Previous Version | Text Only | Print | Product List | Glossary Off
Versions: 1 2 3 4 5 6 7 8 9 10 11 12 13 14 15 16 17 18 19 20 21 22 23 24 25 26 27 28 29 30 31 32 33 34 35 36 37 38 39 40 41 42 43 44 45 46 47 48 49 50

000
ASUS43 KIWX 290700
RWRIWX

KIWX WEATHER ROUNDUP
NATIONAL WEATHER SERVICE NORTHERN INDIANA
300 AM EDT SUN MAR 29 2015

NOTE: "FAIR" INDICATES FEW OR NO CLOUDS BELOW 12,000 FEET WITH NO
SIGNIFICANT WEATHER AND/OR OBSTRUCTIONS TO VISIBILITY.

* THESE STATIONS ARE NOT UNDER NWS QUALITY CONTROL. THEY ALSO MAY NOT
  REPORT WEATHER SUCH AS PRECIPITATION OR FOG.

INZ001>027-290800-
NORTHERN INDIANA

CITY           SKY/WX    TMP DP  RH WIND       PRES   REMARKS
KNOX*            N/A     19   5  53 S6        30.28S WCI  11
SOUTH BEND     CLEAR     23  14  68 CALM      30.28F
GOSHEN         CLEAR     21  14  74 SE6       30.28F WCI  13
WARSAW*        CLEAR     21  14  73 CALM      30.29F
ANGOLA*        CLEAR     18  16  93 CALM      30.28S
FORT WAYNE     CLEAR     24  16  71 S9        30.31F WCI  14
PERU/GRISSOM   CLEAR     24  17  73 S3        30.29F

$$
INZ028>050-290800-
CENTRAL INDIANA

CITY           SKY/WX    TMP DP  RH WIND       PRES   REMARKS
LAFAYETTE      CLEAR     27  17  66 S6        30.31F WCI  20
KOKOMO*          N/A     25  18  74 S8        30.31F WCI  16
MUNCIE*        CLEAR     25  14  63 S6        30.32S WCI  18
INDIANAPOLIS   CLEAR     25  13  60 SE6       30.31F WCI  18

$$
MIZ043>046-050>051-056>058-064>065-071>073-077>080-290800-
SOUTHWEST LOWER MICHIGAN

CITY           SKY/WX    TMP DP  RH WIND       PRES   REMARKS
BATTLE CREEK   FAIR      22  12  65 S7        30.25F WCI  13
BENTON HARBOR  CLEAR     20  13  74 S5        30.27F WCI  13
COLDWATER*     CLEAR     18  15  85 SE3       30.28S
HILLSDALE*     CLEAR     18  13  80 CALM      30.26S
HOLLAND        CLEAR     20  10  65 S6        30.26F WCI  12
GRAND RAPIDS   CLEAR     18   9  68 S8        30.24F WCI   8
KALAMAZOO      CLEAR     23  13  65 S6        30.26F WCI  16
STURGIS*       CLEAR     19  12  73 CALM      30.27F
THREE RIVERS*  FAIR      22  15  73 S5        30.27F WCI  16

$$
OHZ001>008-015>018-024>025-290800-
NORTHWEST OHIO

CITY           SKY/WX    TMP DP  RH WIND       PRES   REMARKS
DEFIANCE       CLEAR     25  15  66 SW5       30.32S WCI  19
FINDLAY        CLEAR     23  16  74 S7        30.31F WCI  15
TOLEDO EXPRESS CLEAR     25  13  60 SW7       30.30S WCI  17
TOLEDO METCALF CLEAR     24  14  65 SW7       30.32S WCI  16
LIMA           CLEAR     26  14  60 S7        30.31F WCI  18

$$
AND FOR LAKE MICHIGAN COASTAL AND OPEN LAKE BUOY OBSERVATIONS

STATION/POSITION TEMP    WIND        PRES    VSBY  WAVE
                 AIR SEA DIR/SP/G                  HT/PER
                 (F)     (DEG/KT/KT) (MB)    (MI)  (FT/S)
CALUMET HARBOR    27     170/  5/  7 1024.0S
MICHIGAN CITY     25     130/ 10/ 12   N/A
BURNS HARBOR      27     170/  7/ 11 1025.7S
SAINT JOSEPH      23     110/  5/  8 1025.1F

$$
&&


USA.gov is the U.S. government's official web portal to all federal, state and local government web resources and services.